Index of /20260429/WXO-DD/model_rdps/10km/00/040
Name Last modified Size Description
Parent Directory -
20260429T00Z_MSC_RDPS_AbsoluteVorticity_IsbL-0250_RLatLon0.09_PT040H.grib2 2026-04-29 02:50 623K
20260429T00Z_MSC_RDPS_AbsoluteVorticity_IsbL-0500_RLatLon0.09_PT040H.grib2 2026-04-29 02:50 573K
20260429T00Z_MSC_RDPS_AbsoluteVorticity_IsbL-0700_RLatLon0.09_PT040H.grib2 2026-04-29 02:50 619K
20260429T00Z_MSC_RDPS_AbsoluteVorticity_IsbL-0850_RLatLon0.09_PT040H.grib2 2026-04-29 02:50 777K
20260429T00Z_MSC_RDPS_AirTemp_AGL-120m_RLatLon0.09_PT040H.grib2 2026-04-29 02:50 381K
20260429T00Z_MSC_RDPS_AirTemp_AGL-2m_RLatLon0.09_PT040H.grib2 2026-04-29 02:50 637K
20260429T00Z_MSC_RDPS_AirTemp_AGL-40m_RLatLon0.09_PT040H.grib2 2026-04-29 02:50 393K
20260429T00Z_MSC_RDPS_AirTemp_AGL-80m_RLatLon0.09_PT040H.grib2 2026-04-29 02:50 387K
20260429T00Z_MSC_RDPS_AirTemp_IsbL-0001_RLatLon0.09_PT040H.grib2 2026-04-29 02:50 324K
20260429T00Z_MSC_RDPS_AirTemp_IsbL-0005_RLatLon0.09_PT040H.grib2 2026-04-29 02:50 292K
20260429T00Z_MSC_RDPS_AirTemp_IsbL-0010_RLatLon0.09_PT040H.grib2 2026-04-29 02:50 304K
20260429T00Z_MSC_RDPS_AirTemp_IsbL-0020_RLatLon0.09_PT040H.grib2 2026-04-29 02:50 319K
20260429T00Z_MSC_RDPS_AirTemp_IsbL-0030_RLatLon0.09_PT040H.grib2 2026-04-29 02:50 341K
20260429T00Z_MSC_RDPS_AirTemp_IsbL-0050_RLatLon0.09_PT040H.grib2 2026-04-29 02:50 315K
20260429T00Z_MSC_RDPS_AirTemp_IsbL-0100_RLatLon0.09_PT040H.grib2 2026-04-29 02:50 426K
20260429T00Z_MSC_RDPS_AirTemp_IsbL-0150_RLatLon0.09_PT040H.grib2 2026-04-29 02:50 425K
20260429T00Z_MSC_RDPS_AirTemp_IsbL-0175_RLatLon0.09_PT040H.grib2 2026-04-29 02:50 414K
20260429T00Z_MSC_RDPS_AirTemp_IsbL-0200_RLatLon0.09_PT040H.grib2 2026-04-29 02:50 418K
20260429T00Z_MSC_RDPS_AirTemp_IsbL-0225_RLatLon0.09_PT040H.grib2 2026-04-29 02:50 419K
20260429T00Z_MSC_RDPS_AirTemp_IsbL-0250_RLatLon0.09_PT040H.grib2 2026-04-29 02:50 428K
20260429T00Z_MSC_RDPS_AirTemp_IsbL-0275_RLatLon0.09_PT040H.grib2 2026-04-29 02:50 407K
20260429T00Z_MSC_RDPS_AirTemp_IsbL-0300_RLatLon0.09_PT040H.grib2 2026-04-29 02:50 412K
20260429T00Z_MSC_RDPS_AirTemp_IsbL-0350_RLatLon0.09_PT040H.grib2 2026-04-29 02:50 424K
20260429T00Z_MSC_RDPS_AirTemp_IsbL-0400_RLatLon0.09_PT040H.grib2 2026-04-29 02:50 425K
20260429T00Z_MSC_RDPS_AirTemp_IsbL-0450_RLatLon0.09_PT040H.grib2 2026-04-29 02:50 431K
20260429T00Z_MSC_RDPS_AirTemp_IsbL-0500_RLatLon0.09_PT040H.grib2 2026-04-29 02:50 405K
20260429T00Z_MSC_RDPS_AirTemp_IsbL-0550_RLatLon0.09_PT040H.grib2 2026-04-29 02:50 424K
20260429T00Z_MSC_RDPS_AirTemp_IsbL-0600_RLatLon0.09_PT040H.grib2 2026-04-29 02:50 444K
20260429T00Z_MSC_RDPS_AirTemp_IsbL-0650_RLatLon0.09_PT040H.grib2 2026-04-29 02:50 461K
20260429T00Z_MSC_RDPS_AirTemp_IsbL-0700_RLatLon0.09_PT040H.grib2 2026-04-29 02:50 375K
20260429T00Z_MSC_RDPS_AirTemp_IsbL-0750_RLatLon0.09_PT040H.grib2 2026-04-29 02:50 406K
20260429T00Z_MSC_RDPS_AirTemp_IsbL-0800_RLatLon0.09_PT040H.grib2 2026-04-29 02:50 450K
20260429T00Z_MSC_RDPS_AirTemp_IsbL-0850_RLatLon0.09_PT040H.grib2 2026-04-29 02:50 501K
20260429T00Z_MSC_RDPS_AirTemp_IsbL-0875_RLatLon0.09_PT040H.grib2 2026-04-29 02:50 523K
20260429T00Z_MSC_RDPS_AirTemp_IsbL-0900_RLatLon0.09_PT040H.grib2 2026-04-29 02:50 535K
20260429T00Z_MSC_RDPS_AirTemp_IsbL-0925_RLatLon0.09_PT040H.grib2 2026-04-29 02:50 535K
20260429T00Z_MSC_RDPS_AirTemp_IsbL-0950_RLatLon0.09_PT040H.grib2 2026-04-29 02:50 538K
20260429T00Z_MSC_RDPS_AirTemp_IsbL-0970_RLatLon0.09_PT040H.grib2 2026-04-29 02:50 532K
20260429T00Z_MSC_RDPS_AirTemp_IsbL-0985_RLatLon0.09_PT040H.grib2 2026-04-29 02:50 519K
20260429T00Z_MSC_RDPS_AirTemp_IsbL-1000_RLatLon0.09_PT040H.grib2 2026-04-29 02:50 501K
20260429T00Z_MSC_RDPS_AirTemp_IsbL-1015_RLatLon0.09_PT040H.grib2 2026-04-29 02:50 500K
20260429T00Z_MSC_RDPS_Albedo_Sfc_RLatLon0.09_PT040H.grib2 2026-04-29 02:50 159K
20260429T00Z_MSC_RDPS_CAPE_Sfc_RLatLon0.09_PT040H.grib2 2026-04-29 02:50 1.6M
20260429T00Z_MSC_RDPS_CIN_Sfc_RLatLon0.09_PT040H.grib2 2026-04-29 02:50 1.1M
20260429T00Z_MSC_RDPS_CloudWater_EAtm_RLatLon0.09_PT040H.grib2 2026-04-29 02:50 219K
20260429T00Z_MSC_RDPS_ConvectivePrecip-Accum_Sfc_RLatLon0.09_PT040H.grib2 2026-04-29 02:50 957K
20260429T00Z_MSC_RDPS_DewPointDepression_AGL-2m_RLatLon0.09_PT040H.grib2 2026-04-29 02:50 419K
20260429T00Z_MSC_RDPS_DewPointDepression_IsbL-0001_RLatLon0.09_PT040H.grib2 2026-04-29 02:50 193
20260429T00Z_MSC_RDPS_DewPointDepression_IsbL-0005_RLatLon0.09_PT040H.grib2 2026-04-29 02:50 193
20260429T00Z_MSC_RDPS_DewPointDepression_IsbL-0010_RLatLon0.09_PT040H.grib2 2026-04-29 02:50 193
20260429T00Z_MSC_RDPS_DewPointDepression_IsbL-0020_RLatLon0.09_PT040H.grib2 2026-04-29 02:50 193
20260429T00Z_MSC_RDPS_DewPointDepression_IsbL-0030_RLatLon0.09_PT040H.grib2 2026-04-29 02:50 193
20260429T00Z_MSC_RDPS_DewPointDepression_IsbL-0050_RLatLon0.09_PT040H.grib2 2026-04-29 02:50 82K
20260429T00Z_MSC_RDPS_DewPointDepression_IsbL-0100_RLatLon0.09_PT040H.grib2 2026-04-29 02:50 126K
20260429T00Z_MSC_RDPS_DewPointDepression_IsbL-0150_RLatLon0.09_PT040H.grib2 2026-04-29 02:50 151K
20260429T00Z_MSC_RDPS_DewPointDepression_IsbL-0175_RLatLon0.09_PT040H.grib2 2026-04-29 02:50 180K
20260429T00Z_MSC_RDPS_DewPointDepression_IsbL-0200_RLatLon0.09_PT040H.grib2 2026-04-29 02:50 216K
20260429T00Z_MSC_RDPS_DewPointDepression_IsbL-0225_RLatLon0.09_PT040H.grib2 2026-04-29 02:50 265K
20260429T00Z_MSC_RDPS_DewPointDepression_IsbL-0250_RLatLon0.09_PT040H.grib2 2026-04-29 02:50 304K
20260429T00Z_MSC_RDPS_DewPointDepression_IsbL-0275_RLatLon0.09_PT040H.grib2 2026-04-29 02:50 310K
20260429T00Z_MSC_RDPS_DewPointDepression_IsbL-0300_RLatLon0.09_PT040H.grib2 2026-04-29 02:50 330K
20260429T00Z_MSC_RDPS_DewPointDepression_IsbL-0350_RLatLon0.09_PT040H.grib2 2026-04-29 02:50 332K
20260429T00Z_MSC_RDPS_DewPointDepression_IsbL-0400_RLatLon0.09_PT040H.grib2 2026-04-29 02:50 339K
20260429T00Z_MSC_RDPS_DewPointDepression_IsbL-0450_RLatLon0.09_PT040H.grib2 2026-04-29 02:50 345K
20260429T00Z_MSC_RDPS_DewPointDepression_IsbL-0500_RLatLon0.09_PT040H.grib2 2026-04-29 02:50 349K
20260429T00Z_MSC_RDPS_DewPointDepression_IsbL-0550_RLatLon0.09_PT040H.grib2 2026-04-29 02:50 360K
20260429T00Z_MSC_RDPS_DewPointDepression_IsbL-0600_RLatLon0.09_PT040H.grib2 2026-04-29 02:50 376K
20260429T00Z_MSC_RDPS_DewPointDepression_IsbL-0650_RLatLon0.09_PT040H.grib2 2026-04-29 02:50 385K
20260429T00Z_MSC_RDPS_DewPointDepression_IsbL-0700_RLatLon0.09_PT040H.grib2 2026-04-29 02:50 392K
20260429T00Z_MSC_RDPS_DewPointDepression_IsbL-0750_RLatLon0.09_PT040H.grib2 2026-04-29 02:50 411K
20260429T00Z_MSC_RDPS_DewPointDepression_IsbL-0800_RLatLon0.09_PT040H.grib2 2026-04-29 02:50 442K
20260429T00Z_MSC_RDPS_DewPointDepression_IsbL-0850_RLatLon0.09_PT040H.grib2 2026-04-29 02:50 471K
20260429T00Z_MSC_RDPS_DewPointDepression_IsbL-0875_RLatLon0.09_PT040H.grib2 2026-04-29 02:50 474K
20260429T00Z_MSC_RDPS_DewPointDepression_IsbL-0900_RLatLon0.09_PT040H.grib2 2026-04-29 02:50 467K
20260429T00Z_MSC_RDPS_DewPointDepression_IsbL-0925_RLatLon0.09_PT040H.grib2 2026-04-29 02:50 453K
20260429T00Z_MSC_RDPS_DewPointDepression_IsbL-0950_RLatLon0.09_PT040H.grib2 2026-04-29 02:50 450K
20260429T00Z_MSC_RDPS_DewPointDepression_IsbL-0970_RLatLon0.09_PT040H.grib2 2026-04-29 02:50 444K
20260429T00Z_MSC_RDPS_DewPointDepression_IsbL-0985_RLatLon0.09_PT040H.grib2 2026-04-29 02:50 440K
20260429T00Z_MSC_RDPS_DewPointDepression_IsbL-1000_RLatLon0.09_PT040H.grib2 2026-04-29 02:50 434K
20260429T00Z_MSC_RDPS_DewPointDepression_IsbL-1015_RLatLon0.09_PT040H.grib2 2026-04-29 02:50 427K
20260429T00Z_MSC_RDPS_DewPoint_AGL-2m_RLatLon0.09_PT040H.grib2 2026-04-29 02:50 404K
20260429T00Z_MSC_RDPS_DownwardLongwaveRadiationFlux-Accum_Sfc_RLatLon0.09_PT040H.grib2 2026-04-29 02:50 379K
20260429T00Z_MSC_RDPS_DownwardShortwaveRadiationFlux-Accum_NTAtm_RLatLon0.09_PT040H.grib2 2026-04-29 02:50 125K
20260429T00Z_MSC_RDPS_DownwardShortwaveRadiationFlux-Accum_Sfc_RLatLon0.09_PT040H.grib2 2026-04-29 02:50 548K
20260429T00Z_MSC_RDPS_FreezingRain-Accum1h_Sfc_RLatLon0.09_PT040H.grib2 2026-04-29 02:50 26K
20260429T00Z_MSC_RDPS_FreezingRain-Accum_Sfc_RLatLon0.09_PT040H.grib2 2026-04-29 02:50 163K
20260429T00Z_MSC_RDPS_GeopotentialHeight_IsbL-0001_RLatLon0.09_PT040H.grib2 2026-04-29 02:50 322K
20260429T00Z_MSC_RDPS_GeopotentialHeight_IsbL-0005_RLatLon0.09_PT040H.grib2 2026-04-29 02:50 305K
20260429T00Z_MSC_RDPS_GeopotentialHeight_IsbL-0010_RLatLon0.09_PT040H.grib2 2026-04-29 02:50 340K
20260429T00Z_MSC_RDPS_GeopotentialHeight_IsbL-0020_RLatLon0.09_PT040H.grib2 2026-04-29 02:50 306K
20260429T00Z_MSC_RDPS_GeopotentialHeight_IsbL-0030_RLatLon0.09_PT040H.grib2 2026-04-29 02:50 307K
20260429T00Z_MSC_RDPS_GeopotentialHeight_IsbL-0050_RLatLon0.09_PT040H.grib2 2026-04-29 02:50 308K
20260429T00Z_MSC_RDPS_GeopotentialHeight_IsbL-0100_RLatLon0.09_PT040H.grib2 2026-04-29 02:50 284K
20260429T00Z_MSC_RDPS_GeopotentialHeight_IsbL-0150_RLatLon0.09_PT040H.grib2 2026-04-29 02:50 228K
20260429T00Z_MSC_RDPS_GeopotentialHeight_IsbL-0175_RLatLon0.09_PT040H.grib2 2026-04-29 02:50 230K
20260429T00Z_MSC_RDPS_GeopotentialHeight_IsbL-0200_RLatLon0.09_PT040H.grib2 2026-04-29 02:50 264K
20260429T00Z_MSC_RDPS_GeopotentialHeight_IsbL-0225_RLatLon0.09_PT040H.grib2 2026-04-29 02:50 265K
20260429T00Z_MSC_RDPS_GeopotentialHeight_IsbL-0250_RLatLon0.09_PT040H.grib2 2026-04-29 02:50 266K
20260429T00Z_MSC_RDPS_GeopotentialHeight_IsbL-0275_RLatLon0.09_PT040H.grib2 2026-04-29 02:50 266K
20260429T00Z_MSC_RDPS_GeopotentialHeight_IsbL-0300_RLatLon0.09_PT040H.grib2 2026-04-29 02:50 265K
20260429T00Z_MSC_RDPS_GeopotentialHeight_IsbL-0350_RLatLon0.09_PT040H.grib2 2026-04-29 02:50 230K
20260429T00Z_MSC_RDPS_GeopotentialHeight_IsbL-0400_RLatLon0.09_PT040H.grib2 2026-04-29 02:50 228K
20260429T00Z_MSC_RDPS_GeopotentialHeight_IsbL-0450_RLatLon0.09_PT040H.grib2 2026-04-29 02:50 296K
20260429T00Z_MSC_RDPS_GeopotentialHeight_IsbL-0500_RLatLon0.09_PT040H.grib2 2026-04-29 02:50 290K
20260429T00Z_MSC_RDPS_GeopotentialHeight_IsbL-0550_RLatLon0.09_PT040H.grib2 2026-04-29 02:50 286K
20260429T00Z_MSC_RDPS_GeopotentialHeight_IsbL-0600_RLatLon0.09_PT040H.grib2 2026-04-29 02:50 283K
20260429T00Z_MSC_RDPS_GeopotentialHeight_IsbL-0650_RLatLon0.09_PT040H.grib2 2026-04-29 02:50 253K
20260429T00Z_MSC_RDPS_GeopotentialHeight_IsbL-0700_RLatLon0.09_PT040H.grib2 2026-04-29 02:50 333K
20260429T00Z_MSC_RDPS_GeopotentialHeight_IsbL-0750_RLatLon0.09_PT040H.grib2 2026-04-29 02:50 335K
20260429T00Z_MSC_RDPS_GeopotentialHeight_IsbL-0800_RLatLon0.09_PT040H.grib2 2026-04-29 02:50 342K
20260429T00Z_MSC_RDPS_GeopotentialHeight_IsbL-0850_RLatLon0.09_PT040H.grib2 2026-04-29 02:50 386K
20260429T00Z_MSC_RDPS_GeopotentialHeight_IsbL-0875_RLatLon0.09_PT040H.grib2 2026-04-29 02:50 391K
20260429T00Z_MSC_RDPS_GeopotentialHeight_IsbL-0900_RLatLon0.09_PT040H.grib2 2026-04-29 02:50 395K
20260429T00Z_MSC_RDPS_GeopotentialHeight_IsbL-0925_RLatLon0.09_PT040H.grib2 2026-04-29 02:50 397K
20260429T00Z_MSC_RDPS_GeopotentialHeight_IsbL-0950_RLatLon0.09_PT040H.grib2 2026-04-29 02:50 401K
20260429T00Z_MSC_RDPS_GeopotentialHeight_IsbL-0970_RLatLon0.09_PT040H.grib2 2026-04-29 02:50 408K
20260429T00Z_MSC_RDPS_GeopotentialHeight_IsbL-0985_RLatLon0.09_PT040H.grib2 2026-04-29 02:50 419K
20260429T00Z_MSC_RDPS_GeopotentialHeight_IsbL-1000_RLatLon0.09_PT040H.grib2 2026-04-29 02:50 433K
20260429T00Z_MSC_RDPS_GeopotentialHeight_IsbL-1015_RLatLon0.09_PT040H.grib2 2026-04-29 02:50 449K
20260429T00Z_MSC_RDPS_Humidex_Sfc_RLatLon0.09_PT040H.grib2 2026-04-29 02:50 2.4M
20260429T00Z_MSC_RDPS_IcePellets-Accum1h_Sfc_RLatLon0.09_PT040H.grib2 2026-04-29 02:50 3.9K
20260429T00Z_MSC_RDPS_IcePellets-Accum_Sfc_RLatLon0.09_PT040H.grib2 2026-04-29 02:50 20K
20260429T00Z_MSC_RDPS_KIndex_Sfc_RLatLon0.09_PT040H.grib2 2026-04-29 02:50 2.5M
20260429T00Z_MSC_RDPS_LatentHeatNetFlux_Sfc_RLatLon0.09_PT040H.grib2 2026-04-29 02:50 381K
20260429T00Z_MSC_RDPS_LiftedIndex-MU-VT_IsbL-0500_RLatLon0.09_PT040H.grib2 2026-04-29 02:50 2.4M
20260429T00Z_MSC_RDPS_NetLongwaveRadiationFlux-Accum_Sfc_RLatLon0.09_PT040H.grib2 2026-04-29 02:50 506K
20260429T00Z_MSC_RDPS_NetShortwaveRadiationFlux-Accum_Sfc_RLatLon0.09_PT040H.grib2 2026-04-29 02:50 550K
20260429T00Z_MSC_RDPS_PlanetaryBoundaryLayerHeight_Sfc_RLatLon0.09_PT040H.grib2 2026-04-29 02:50 1.2M
20260429T00Z_MSC_RDPS_Precip-Accum1h_Sfc_RLatLon0.09_PT040H.grib2 2026-04-29 02:50 1.3M
20260429T00Z_MSC_RDPS_Precip-Accum_Sfc_RLatLon0.09_PT040H.grib2 2026-04-29 02:50 1.9M
20260429T00Z_MSC_RDPS_PrecipRate_Sfc_RLatLon0.09_PT040H.grib2 2026-04-29 02:50 181K
20260429T00Z_MSC_RDPS_PrecipType-Instant_Sfc_RLatLon0.09_PT040H.grib2 2026-04-29 02:50 545K
20260429T00Z_MSC_RDPS_Pressure-Trend3h_Sfc_RLatLon0.09_PT040H.grib2 2026-04-29 02:50 1.2M
20260429T00Z_MSC_RDPS_Pressure_MSL_RLatLon0.09_PT040H.grib2 2026-04-29 02:50 295K
20260429T00Z_MSC_RDPS_Pressure_PVU-1.5_RLatLon0.09_PT040H.grib2 2026-04-29 02:50 2.5M
20260429T00Z_MSC_RDPS_Pressure_PVU-1_RLatLon0.09_PT040H.grib2 2026-04-29 02:50 2.4M
20260429T00Z_MSC_RDPS_Pressure_PVU-2_RLatLon0.09_PT040H.grib2 2026-04-29 02:50 2.4M
20260429T00Z_MSC_RDPS_Pressure_Sfc_RLatLon0.09_PT040H.grib2 2026-04-29 02:50 500K
20260429T00Z_MSC_RDPS_RadiativeTemp_Sfc_RLatLon0.09_PT040H.grib2 2026-04-29 02:50 324K
20260429T00Z_MSC_RDPS_Rain-Accum1h_Sfc_RLatLon0.09_PT040H.grib2 2026-04-29 02:50 607K
20260429T00Z_MSC_RDPS_Rain-Accum_Sfc_RLatLon0.09_PT040H.grib2 2026-04-29 02:50 1.5M
20260429T00Z_MSC_RDPS_RelativeHumidity_AGL-2m_RLatLon0.09_PT040H.grib2 2026-04-29 02:50 1.0M
20260429T00Z_MSC_RDPS_RelativeHumidity_IsbL-0010_RLatLon0.09_PT040H.grib2 2026-04-29 02:50 642K
20260429T00Z_MSC_RDPS_RelativeHumidity_IsbL-0020_RLatLon0.09_PT040H.grib2 2026-04-29 02:50 685K
20260429T00Z_MSC_RDPS_RelativeHumidity_IsbL-0030_RLatLon0.09_PT040H.grib2 2026-04-29 02:50 607K
20260429T00Z_MSC_RDPS_RelativeHumidity_IsbL-0050_RLatLon0.09_PT040H.grib2 2026-04-29 02:50 320K
20260429T00Z_MSC_RDPS_RelativeHumidity_IsbL-0100_RLatLon0.09_PT040H.grib2 2026-04-29 02:50 281K
20260429T00Z_MSC_RDPS_RelativeHumidity_IsbL-0150_RLatLon0.09_PT040H.grib2 2026-04-29 02:50 412K
20260429T00Z_MSC_RDPS_RelativeHumidity_IsbL-0175_RLatLon0.09_PT040H.grib2 2026-04-29 02:50 478K
20260429T00Z_MSC_RDPS_RelativeHumidity_IsbL-0200_RLatLon0.09_PT040H.grib2 2026-04-29 02:50 556K
20260429T00Z_MSC_RDPS_RelativeHumidity_IsbL-0225_RLatLon0.09_PT040H.grib2 2026-04-29 02:50 631K
20260429T00Z_MSC_RDPS_RelativeHumidity_IsbL-0250_RLatLon0.09_PT040H.grib2 2026-04-29 02:50 706K
20260429T00Z_MSC_RDPS_RelativeHumidity_IsbL-0275_RLatLon0.09_PT040H.grib2 2026-04-29 02:50 734K
20260429T00Z_MSC_RDPS_RelativeHumidity_IsbL-0300_RLatLon0.09_PT040H.grib2 2026-04-29 02:50 780K
20260429T00Z_MSC_RDPS_RelativeHumidity_IsbL-0350_RLatLon0.09_PT040H.grib2 2026-04-29 02:50 790K
20260429T00Z_MSC_RDPS_RelativeHumidity_IsbL-0400_RLatLon0.09_PT040H.grib2 2026-04-29 02:50 799K
20260429T00Z_MSC_RDPS_RelativeHumidity_IsbL-0450_RLatLon0.09_PT040H.grib2 2026-04-29 02:50 802K
20260429T00Z_MSC_RDPS_RelativeHumidity_IsbL-0500_RLatLon0.09_PT040H.grib2 2026-04-29 02:50 806K
20260429T00Z_MSC_RDPS_RelativeHumidity_IsbL-0550_RLatLon0.09_PT040H.grib2 2026-04-29 02:50 823K
20260429T00Z_MSC_RDPS_RelativeHumidity_IsbL-0600_RLatLon0.09_PT040H.grib2 2026-04-29 02:50 851K
20260429T00Z_MSC_RDPS_RelativeHumidity_IsbL-0650_RLatLon0.09_PT040H.grib2 2026-04-29 02:50 867K
20260429T00Z_MSC_RDPS_RelativeHumidity_IsbL-0700_RLatLon0.09_PT040H.grib2 2026-04-29 02:50 887K
20260429T00Z_MSC_RDPS_RelativeHumidity_IsbL-0750_RLatLon0.09_PT040H.grib2 2026-04-29 02:50 932K
20260429T00Z_MSC_RDPS_RelativeHumidity_IsbL-0800_RLatLon0.09_PT040H.grib2 2026-04-29 02:50 1.0M
20260429T00Z_MSC_RDPS_RelativeHumidity_IsbL-0850_RLatLon0.09_PT040H.grib2 2026-04-29 02:50 1.0M
20260429T00Z_MSC_RDPS_RelativeHumidity_IsbL-0875_RLatLon0.09_PT040H.grib2 2026-04-29 02:50 1.1M
20260429T00Z_MSC_RDPS_RelativeHumidity_IsbL-0900_RLatLon0.09_PT040H.grib2 2026-04-29 02:50 1.1M
20260429T00Z_MSC_RDPS_RelativeHumidity_IsbL-0925_RLatLon0.09_PT040H.grib2 2026-04-29 02:50 1.1M
20260429T00Z_MSC_RDPS_RelativeHumidity_IsbL-0950_RLatLon0.09_PT040H.grib2 2026-04-29 02:50 1.1M
20260429T00Z_MSC_RDPS_RelativeHumidity_IsbL-0970_RLatLon0.09_PT040H.grib2 2026-04-29 02:50 1.1M
20260429T00Z_MSC_RDPS_RelativeHumidity_IsbL-0985_RLatLon0.09_PT040H.grib2 2026-04-29 02:50 1.0M
20260429T00Z_MSC_RDPS_RelativeHumidity_IsbL-1000_RLatLon0.09_PT040H.grib2 2026-04-29 02:50 1.0M
20260429T00Z_MSC_RDPS_RelativeHumidity_IsbL-1015_RLatLon0.09_PT040H.grib2 2026-04-29 02:50 1.0M
20260429T00Z_MSC_RDPS_Runoff-Accum_Sfc_RLatLon0.09_PT040H.grib2 2026-04-29 02:50 61K
20260429T00Z_MSC_RDPS_SWEATIndex_Sfc_RLatLon0.09_PT040H.grib2 2026-04-29 02:50 2.4M
20260429T00Z_MSC_RDPS_SeeingIndex_EAtm_RLatLon0.09_PT040H.grib2 2026-04-29 02:50 1.0M
20260429T00Z_MSC_RDPS_SensibleHeatNetFlux_Sfc_RLatLon0.09_PT040H.grib2 2026-04-29 02:50 357K
20260429T00Z_MSC_RDPS_ShowalterIndex_IsbL-0500_RLatLon0.09_PT040H.grib2 2026-04-29 02:50 2.6M
20260429T00Z_MSC_RDPS_SkyTransparencyIndex_EAtm_RLatLon0.09_PT040H.grib2 2026-04-29 02:50 675K
20260429T00Z_MSC_RDPS_Snow-Accum1h_Sfc_RLatLon0.09_PT040H.grib2 2026-04-29 02:50 451K
20260429T00Z_MSC_RDPS_Snow-Accum_Sfc_RLatLon0.09_PT040H.grib2 2026-04-29 02:50 707K
20260429T00Z_MSC_RDPS_SnowDensity_Sfc_RLatLon0.09_PT040H.grib2 2026-04-29 02:50 181K
20260429T00Z_MSC_RDPS_SnowDepth_Sfc_RLatLon0.09_PT040H.grib2 2026-04-29 02:50 683K
20260429T00Z_MSC_RDPS_SoilTemp_DBS-0to10cm_RLatLon0.09_PT040H.grib2 2026-04-29 02:50 234K
20260429T00Z_MSC_RDPS_SoilTemp_Sfc_RLatLon0.09_PT040H.grib2 2026-04-29 02:50 290K
20260429T00Z_MSC_RDPS_SoilVolumetricIceContent_Sfc_RLatLon0.09_PT040H.grib2 2026-04-29 02:50 164K
20260429T00Z_MSC_RDPS_SoilVolumetricWaterContent_DBS-0to10cm_RLatLon0.09_PT040H.grib2 2026-04-29 02:50 267K
20260429T00Z_MSC_RDPS_SoilVolumetricWaterContent_DBS-0to1cm_RLatLon0.09_PT040H.grib2 2026-04-29 02:50 336K
20260429T00Z_MSC_RDPS_SpecificHumidity_AGL-120m_RLatLon0.09_PT040H.grib2 2026-04-29 02:50 498K
20260429T00Z_MSC_RDPS_SpecificHumidity_AGL-2m_RLatLon0.09_PT040H.grib2 2026-04-29 02:50 668K
20260429T00Z_MSC_RDPS_SpecificHumidity_AGL-40m_RLatLon0.09_PT040H.grib2 2026-04-29 02:50 503K
20260429T00Z_MSC_RDPS_SpecificHumidity_AGL-80m_RLatLon0.09_PT040H.grib2 2026-04-29 02:50 500K
20260429T00Z_MSC_RDPS_SpecificHumidity_IsbL-0001_RLatLon0.09_PT040H.grib2 2026-04-29 02:50 362K
20260429T00Z_MSC_RDPS_SpecificHumidity_IsbL-0005_RLatLon0.09_PT040H.grib2 2026-04-29 02:50 360K
20260429T00Z_MSC_RDPS_SpecificHumidity_IsbL-0010_RLatLon0.09_PT040H.grib2 2026-04-29 02:50 397K
20260429T00Z_MSC_RDPS_SpecificHumidity_IsbL-0020_RLatLon0.09_PT040H.grib2 2026-04-29 02:50 389K
20260429T00Z_MSC_RDPS_SpecificHumidity_IsbL-0030_RLatLon0.09_PT040H.grib2 2026-04-29 02:50 371K
20260429T00Z_MSC_RDPS_SpecificHumidity_IsbL-0050_RLatLon0.09_PT040H.grib2 2026-04-29 02:50 460K
20260429T00Z_MSC_RDPS_SpecificHumidity_IsbL-0100_RLatLon0.09_PT040H.grib2 2026-04-29 02:50 449K
20260429T00Z_MSC_RDPS_SpecificHumidity_IsbL-0150_RLatLon0.09_PT040H.grib2 2026-04-29 02:50 457K
20260429T00Z_MSC_RDPS_SpecificHumidity_IsbL-0175_RLatLon0.09_PT040H.grib2 2026-04-29 02:50 536K
20260429T00Z_MSC_RDPS_SpecificHumidity_IsbL-0200_RLatLon0.09_PT040H.grib2 2026-04-29 02:50 449K
20260429T00Z_MSC_RDPS_SpecificHumidity_IsbL-0225_RLatLon0.09_PT040H.grib2 2026-04-29 02:50 458K
20260429T00Z_MSC_RDPS_SpecificHumidity_IsbL-0250_RLatLon0.09_PT040H.grib2 2026-04-29 02:50 566K
20260429T00Z_MSC_RDPS_SpecificHumidity_IsbL-0275_RLatLon0.09_PT040H.grib2 2026-04-29 02:50 481K
20260429T00Z_MSC_RDPS_SpecificHumidity_IsbL-0300_RLatLon0.09_PT040H.grib2 2026-04-29 02:50 581K
20260429T00Z_MSC_RDPS_SpecificHumidity_IsbL-0350_RLatLon0.09_PT040H.grib2 2026-04-29 02:50 541K
20260429T00Z_MSC_RDPS_SpecificHumidity_IsbL-0400_RLatLon0.09_PT040H.grib2 2026-04-29 02:50 520K
20260429T00Z_MSC_RDPS_SpecificHumidity_IsbL-0450_RLatLon0.09_PT040H.grib2 2026-04-29 02:50 571K
20260429T00Z_MSC_RDPS_SpecificHumidity_IsbL-0500_RLatLon0.09_PT040H.grib2 2026-04-29 02:50 506K
20260429T00Z_MSC_RDPS_SpecificHumidity_IsbL-0550_RLatLon0.09_PT040H.grib2 2026-04-29 02:50 579K
20260429T00Z_MSC_RDPS_SpecificHumidity_IsbL-0600_RLatLon0.09_PT040H.grib2 2026-04-29 02:50 639K
20260429T00Z_MSC_RDPS_SpecificHumidity_IsbL-0650_RLatLon0.09_PT040H.grib2 2026-04-29 02:50 557K
20260429T00Z_MSC_RDPS_SpecificHumidity_IsbL-0700_RLatLon0.09_PT040H.grib2 2026-04-29 02:50 598K
20260429T00Z_MSC_RDPS_SpecificHumidity_IsbL-0750_RLatLon0.09_PT040H.grib2 2026-04-29 02:50 651K
20260429T00Z_MSC_RDPS_SpecificHumidity_IsbL-0800_RLatLon0.09_PT040H.grib2 2026-04-29 02:50 728K
20260429T00Z_MSC_RDPS_SpecificHumidity_IsbL-0850_RLatLon0.09_PT040H.grib2 2026-04-29 02:50 800K
20260429T00Z_MSC_RDPS_SpecificHumidity_IsbL-0875_RLatLon0.09_PT040H.grib2 2026-04-29 02:50 826K
20260429T00Z_MSC_RDPS_SpecificHumidity_IsbL-0900_RLatLon0.09_PT040H.grib2 2026-04-29 02:50 842K
20260429T00Z_MSC_RDPS_SpecificHumidity_IsbL-0925_RLatLon0.09_PT040H.grib2 2026-04-29 02:50 845K
20260429T00Z_MSC_RDPS_SpecificHumidity_IsbL-0950_RLatLon0.09_PT040H.grib2 2026-04-29 02:50 709K
20260429T00Z_MSC_RDPS_SpecificHumidity_IsbL-0970_RLatLon0.09_PT040H.grib2 2026-04-29 02:50 702K
20260429T00Z_MSC_RDPS_SpecificHumidity_IsbL-0985_RLatLon0.09_PT040H.grib2 2026-04-29 02:50 695K
20260429T00Z_MSC_RDPS_SpecificHumidity_IsbL-1000_RLatLon0.09_PT040H.grib2 2026-04-29 02:50 686K
20260429T00Z_MSC_RDPS_SpecificHumidity_IsbL-1015_RLatLon0.09_PT040H.grib2 2026-04-29 02:50 676K
20260429T00Z_MSC_RDPS_SpecificHumidity_Sfc_RLatLon0.09_PT040H.grib2 2026-04-29 02:50 332K
20260429T00Z_MSC_RDPS_StormRelativeHelicity_EtaL-10000_RLatLon0.09_PT040H.grib2 2026-04-29 02:50 1.1M
20260429T00Z_MSC_RDPS_StormSeverityIndex_EtaL-10000_RLatLon0.09_PT040H.grib2 2026-04-29 02:50 1.2M
20260429T00Z_MSC_RDPS_Thickness_IsbL-0850to0700_RLatLon0.09_PT040H.grib2 2026-04-29 02:50 177K
20260429T00Z_MSC_RDPS_Thickness_IsbL-1000to0500_RLatLon0.09_PT040H.grib2 2026-04-29 02:50 200K
20260429T00Z_MSC_RDPS_Thickness_IsbL-1000to0850_RLatLon0.09_PT040H.grib2 2026-04-29 02:50 189K
20260429T00Z_MSC_RDPS_TotalCloudCover_Sfc_RLatLon0.09_PT040H.grib2 2026-04-29 02:50 647K
20260429T00Z_MSC_RDPS_TotalTotalsIndex_Sfc_RLatLon0.09_PT040H.grib2 2026-04-29 02:50 2.4M
20260429T00Z_MSC_RDPS_UVIndex-ClearSky_Sfc_RLatLon0.09_PT040H.grib2 2026-04-29 02:50 208K
20260429T00Z_MSC_RDPS_UVIndex_Sfc_RLatLon0.09_PT040H.grib2 2026-04-29 02:50 465K
20260429T00Z_MSC_RDPS_UpwardLongwaveRadiationFlux_NTAtm_RLatLon0.09_PT040H.grib2 2026-04-29 02:50 493K
20260429T00Z_MSC_RDPS_UpwardShortwaveRadiationFlux_NTAtm_RLatLon0.09_PT040H.grib2 2026-04-29 02:50 505K
20260429T00Z_MSC_RDPS_VerticalVelocity_IsbL-0250_RLatLon0.09_PT040H.grib2 2026-04-29 02:50 557K
20260429T00Z_MSC_RDPS_VerticalVelocity_IsbL-0500_RLatLon0.09_PT040H.grib2 2026-04-29 02:50 544K
20260429T00Z_MSC_RDPS_VerticalVelocity_IsbL-0700_RLatLon0.09_PT040H.grib2 2026-04-29 02:50 588K
20260429T00Z_MSC_RDPS_VerticalVelocity_IsbL-0850_RLatLon0.09_PT040H.grib2 2026-04-29 02:50 640K
20260429T00Z_MSC_RDPS_VerticalWindShear_EtaL-6500_RLatLon0.09_PT040H.grib2 2026-04-29 02:50 1.2M
20260429T00Z_MSC_RDPS_WindChill_Sfc_RLatLon0.09_PT040H.grib2 2026-04-29 02:50 1.1M
20260429T00Z_MSC_RDPS_WindDir_AGL-10m_RLatLon0.09_PT040H.grib2 2026-04-29 02:50 1.0M
20260429T00Z_MSC_RDPS_WindDir_AGL-120m_RLatLon0.09_PT040H.grib2 2026-04-29 02:50 628K
20260429T00Z_MSC_RDPS_WindDir_AGL-40m_RLatLon0.09_PT040H.grib2 2026-04-29 02:50 650K
20260429T00Z_MSC_RDPS_WindDir_AGL-80m_RLatLon0.09_PT040H.grib2 2026-04-29 02:50 637K
20260429T00Z_MSC_RDPS_WindDir_IsbL-0001_RLatLon0.09_PT040H.grib2 2026-04-29 02:50 298K
20260429T00Z_MSC_RDPS_WindDir_IsbL-0005_RLatLon0.09_PT040H.grib2 2026-04-29 02:50 376K
20260429T00Z_MSC_RDPS_WindDir_IsbL-0010_RLatLon0.09_PT040H.grib2 2026-04-29 02:50 392K
20260429T00Z_MSC_RDPS_WindDir_IsbL-0020_RLatLon0.09_PT040H.grib2 2026-04-29 02:50 413K
20260429T00Z_MSC_RDPS_WindDir_IsbL-0030_RLatLon0.09_PT040H.grib2 2026-04-29 02:50 417K
20260429T00Z_MSC_RDPS_WindDir_IsbL-0050_RLatLon0.09_PT040H.grib2 2026-04-29 02:50 440K
20260429T00Z_MSC_RDPS_WindDir_IsbL-0100_RLatLon0.09_PT040H.grib2 2026-04-29 02:50 436K
20260429T00Z_MSC_RDPS_WindDir_IsbL-0150_RLatLon0.09_PT040H.grib2 2026-04-29 02:50 433K
20260429T00Z_MSC_RDPS_WindDir_IsbL-0175_RLatLon0.09_PT040H.grib2 2026-04-29 02:50 454K
20260429T00Z_MSC_RDPS_WindDir_IsbL-0200_RLatLon0.09_PT040H.grib2 2026-04-29 02:50 465K
20260429T00Z_MSC_RDPS_WindDir_IsbL-0225_RLatLon0.09_PT040H.grib2 2026-04-29 02:50 467K
20260429T00Z_MSC_RDPS_WindDir_IsbL-0250_RLatLon0.09_PT040H.grib2 2026-04-29 02:50 466K
20260429T00Z_MSC_RDPS_WindDir_IsbL-0275_RLatLon0.09_PT040H.grib2 2026-04-29 02:50 487K
20260429T00Z_MSC_RDPS_WindDir_IsbL-0300_RLatLon0.09_PT040H.grib2 2026-04-29 02:50 484K
20260429T00Z_MSC_RDPS_WindDir_IsbL-0350_RLatLon0.09_PT040H.grib2 2026-04-29 02:50 504K
20260429T00Z_MSC_RDPS_WindDir_IsbL-0400_RLatLon0.09_PT040H.grib2 2026-04-29 02:50 512K
20260429T00Z_MSC_RDPS_WindDir_IsbL-0450_RLatLon0.09_PT040H.grib2 2026-04-29 02:50 521K
20260429T00Z_MSC_RDPS_WindDir_IsbL-0500_RLatLon0.09_PT040H.grib2 2026-04-29 02:50 535K
20260429T00Z_MSC_RDPS_WindDir_IsbL-0550_RLatLon0.09_PT040H.grib2 2026-04-29 02:50 556K
20260429T00Z_MSC_RDPS_WindDir_IsbL-0600_RLatLon0.09_PT040H.grib2 2026-04-29 02:50 592K
20260429T00Z_MSC_RDPS_WindDir_IsbL-0650_RLatLon0.09_PT040H.grib2 2026-04-29 02:50 642K
20260429T00Z_MSC_RDPS_WindDir_IsbL-0700_RLatLon0.09_PT040H.grib2 2026-04-29 02:50 686K
20260429T00Z_MSC_RDPS_WindDir_IsbL-0750_RLatLon0.09_PT040H.grib2 2026-04-29 02:50 728K
20260429T00Z_MSC_RDPS_WindDir_IsbL-0800_RLatLon0.09_PT040H.grib2 2026-04-29 02:50 790K
20260429T00Z_MSC_RDPS_WindDir_IsbL-0850_RLatLon0.09_PT040H.grib2 2026-04-29 02:50 867K
20260429T00Z_MSC_RDPS_WindDir_IsbL-0875_RLatLon0.09_PT040H.grib2 2026-04-29 02:50 896K
20260429T00Z_MSC_RDPS_WindDir_IsbL-0900_RLatLon0.09_PT040H.grib2 2026-04-29 02:50 915K
20260429T00Z_MSC_RDPS_WindDir_IsbL-0925_RLatLon0.09_PT040H.grib2 2026-04-29 02:50 925K
20260429T00Z_MSC_RDPS_WindDir_IsbL-0950_RLatLon0.09_PT040H.grib2 2026-04-29 02:50 923K
20260429T00Z_MSC_RDPS_WindDir_IsbL-0970_RLatLon0.09_PT040H.grib2 2026-04-29 02:50 935K
20260429T00Z_MSC_RDPS_WindDir_IsbL-0985_RLatLon0.09_PT040H.grib2 2026-04-29 02:50 945K
20260429T00Z_MSC_RDPS_WindDir_IsbL-1000_RLatLon0.09_PT040H.grib2 2026-04-29 02:50 959K
20260429T00Z_MSC_RDPS_WindDir_IsbL-1015_RLatLon0.09_PT040H.grib2 2026-04-29 02:50 1.0M
20260429T00Z_MSC_RDPS_WindGust-Max_AGL-10m_RLatLon0.09_PT040H.grib2 2026-04-29 02:50 1.0M
20260429T00Z_MSC_RDPS_WindGust-Min_AGL-10m_RLatLon0.09_PT040H.grib2 2026-04-29 02:50 1.0M
20260429T00Z_MSC_RDPS_WindGust_AGL-10m_RLatLon0.09_PT040H.grib2 2026-04-29 02:50 1.0M
20260429T00Z_MSC_RDPS_WindSpeed_AGL-10m_RLatLon0.09_PT040H.grib2 2026-04-29 02:50 840K
20260429T00Z_MSC_RDPS_WindSpeed_AGL-120m_RLatLon0.09_PT040H.grib2 2026-04-29 02:50 548K
20260429T00Z_MSC_RDPS_WindSpeed_AGL-40m_RLatLon0.09_PT040H.grib2 2026-04-29 02:50 538K
20260429T00Z_MSC_RDPS_WindSpeed_AGL-80m_RLatLon0.09_PT040H.grib2 2026-04-29 02:50 548K
20260429T00Z_MSC_RDPS_WindSpeed_IsbL-0001_RLatLon0.09_PT040H.grib2 2026-04-29 02:50 255K
20260429T00Z_MSC_RDPS_WindSpeed_IsbL-0005_RLatLon0.09_PT040H.grib2 2026-04-29 02:50 388K
20260429T00Z_MSC_RDPS_WindSpeed_IsbL-0010_RLatLon0.09_PT040H.grib2 2026-04-29 02:50 404K
20260429T00Z_MSC_RDPS_WindSpeed_IsbL-0020_RLatLon0.09_PT040H.grib2 2026-04-29 02:50 327K
20260429T00Z_MSC_RDPS_WindSpeed_IsbL-0030_RLatLon0.09_PT040H.grib2 2026-04-29 02:50 327K
20260429T00Z_MSC_RDPS_WindSpeed_IsbL-0050_RLatLon0.09_PT040H.grib2 2026-04-29 02:50 352K
20260429T00Z_MSC_RDPS_WindSpeed_IsbL-0100_RLatLon0.09_PT040H.grib2 2026-04-29 02:50 478K
20260429T00Z_MSC_RDPS_WindSpeed_IsbL-0150_RLatLon0.09_PT040H.grib2 2026-04-29 02:50 385K
20260429T00Z_MSC_RDPS_WindSpeed_IsbL-0175_RLatLon0.09_PT040H.grib2 2026-04-29 02:50 430K
20260429T00Z_MSC_RDPS_WindSpeed_IsbL-0200_RLatLon0.09_PT040H.grib2 2026-04-29 02:50 446K
20260429T00Z_MSC_RDPS_WindSpeed_IsbL-0225_RLatLon0.09_PT040H.grib2 2026-04-29 02:50 453K
20260429T00Z_MSC_RDPS_WindSpeed_IsbL-0250_RLatLon0.09_PT040H.grib2 2026-04-29 02:50 458K
20260429T00Z_MSC_RDPS_WindSpeed_IsbL-0275_RLatLon0.09_PT040H.grib2 2026-04-29 02:50 477K
20260429T00Z_MSC_RDPS_WindSpeed_IsbL-0300_RLatLon0.09_PT040H.grib2 2026-04-29 02:50 473K
20260429T00Z_MSC_RDPS_WindSpeed_IsbL-0350_RLatLon0.09_PT040H.grib2 2026-04-29 02:50 483K
20260429T00Z_MSC_RDPS_WindSpeed_IsbL-0400_RLatLon0.09_PT040H.grib2 2026-04-29 02:50 485K
20260429T00Z_MSC_RDPS_WindSpeed_IsbL-0450_RLatLon0.09_PT040H.grib2 2026-04-29 02:50 466K
20260429T00Z_MSC_RDPS_WindSpeed_IsbL-0500_RLatLon0.09_PT040H.grib2 2026-04-29 02:50 467K
20260429T00Z_MSC_RDPS_WindSpeed_IsbL-0550_RLatLon0.09_PT040H.grib2 2026-04-29 02:50 466K
20260429T00Z_MSC_RDPS_WindSpeed_IsbL-0600_RLatLon0.09_PT040H.grib2 2026-04-29 02:50 473K
20260429T00Z_MSC_RDPS_WindSpeed_IsbL-0650_RLatLon0.09_PT040H.grib2 2026-04-29 02:50 613K
20260429T00Z_MSC_RDPS_WindSpeed_IsbL-0700_RLatLon0.09_PT040H.grib2 2026-04-29 02:50 637K
20260429T00Z_MSC_RDPS_WindSpeed_IsbL-0750_RLatLon0.09_PT040H.grib2 2026-04-29 02:50 709K
20260429T00Z_MSC_RDPS_WindSpeed_IsbL-0800_RLatLon0.09_PT040H.grib2 2026-04-29 02:50 752K
20260429T00Z_MSC_RDPS_WindSpeed_IsbL-0850_RLatLon0.09_PT040H.grib2 2026-04-29 02:50 812K
20260429T00Z_MSC_RDPS_WindSpeed_IsbL-0875_RLatLon0.09_PT040H.grib2 2026-04-29 02:50 834K
20260429T00Z_MSC_RDPS_WindSpeed_IsbL-0900_RLatLon0.09_PT040H.grib2 2026-04-29 02:50 849K
20260429T00Z_MSC_RDPS_WindSpeed_IsbL-0925_RLatLon0.09_PT040H.grib2 2026-04-29 02:50 859K
20260429T00Z_MSC_RDPS_WindSpeed_IsbL-0950_RLatLon0.09_PT040H.grib2 2026-04-29 02:50 857K
20260429T00Z_MSC_RDPS_WindSpeed_IsbL-0970_RLatLon0.09_PT040H.grib2 2026-04-29 02:50 859K
20260429T00Z_MSC_RDPS_WindSpeed_IsbL-0985_RLatLon0.09_PT040H.grib2 2026-04-29 02:50 851K
20260429T00Z_MSC_RDPS_WindSpeed_IsbL-1000_RLatLon0.09_PT040H.grib2 2026-04-29 02:50 848K
20260429T00Z_MSC_RDPS_WindSpeed_IsbL-1015_RLatLon0.09_PT040H.grib2 2026-04-29 02:50 840K
20260429T00Z_MSC_RDPS_WindU_AGL-10m_RLatLon0.09_PT040H.grib2 2026-04-29 02:50 432K
20260429T00Z_MSC_RDPS_WindU_AGL-120m_RLatLon0.09_PT040H.grib2 2026-04-29 02:50 535K
20260429T00Z_MSC_RDPS_WindU_AGL-40m_RLatLon0.09_PT040H.grib2 2026-04-29 02:50 536K
20260429T00Z_MSC_RDPS_WindU_AGL-80m_RLatLon0.09_PT040H.grib2 2026-04-29 02:50 535K
20260429T00Z_MSC_RDPS_WindU_IsbL-0001_RLatLon0.09_PT040H.grib2 2026-04-29 02:50 245K
20260429T00Z_MSC_RDPS_WindU_IsbL-0005_RLatLon0.09_PT040H.grib2 2026-04-29 02:50 289K
20260429T00Z_MSC_RDPS_WindU_IsbL-0010_RLatLon0.09_PT040H.grib2 2026-04-29 02:50 300K
20260429T00Z_MSC_RDPS_WindU_IsbL-0020_RLatLon0.09_PT040H.grib2 2026-04-29 02:50 355K
20260429T00Z_MSC_RDPS_WindU_IsbL-0030_RLatLon0.09_PT040H.grib2 2026-04-29 02:50 317K
20260429T00Z_MSC_RDPS_WindU_IsbL-0050_RLatLon0.09_PT040H.grib2 2026-04-29 02:50 344K
20260429T00Z_MSC_RDPS_WindU_IsbL-0100_RLatLon0.09_PT040H.grib2 2026-04-29 02:50 434K
20260429T00Z_MSC_RDPS_WindU_IsbL-0150_RLatLon0.09_PT040H.grib2 2026-04-29 02:50 377K
20260429T00Z_MSC_RDPS_WindU_IsbL-0175_RLatLon0.09_PT040H.grib2 2026-04-29 02:50 423K
20260429T00Z_MSC_RDPS_WindU_IsbL-0200_RLatLon0.09_PT040H.grib2 2026-04-29 02:50 340K
20260429T00Z_MSC_RDPS_WindU_IsbL-0225_RLatLon0.09_PT040H.grib2 2026-04-29 02:50 345K
20260429T00Z_MSC_RDPS_WindU_IsbL-0250_RLatLon0.09_PT040H.grib2 2026-04-29 02:50 348K
20260429T00Z_MSC_RDPS_WindU_IsbL-0275_RLatLon0.09_PT040H.grib2 2026-04-29 02:50 363K
20260429T00Z_MSC_RDPS_WindU_IsbL-0300_RLatLon0.09_PT040H.grib2 2026-04-29 02:50 358K
20260429T00Z_MSC_RDPS_WindU_IsbL-0350_RLatLon0.09_PT040H.grib2 2026-04-29 02:50 366K
20260429T00Z_MSC_RDPS_WindU_IsbL-0400_RLatLon0.09_PT040H.grib2 2026-04-29 02:50 473K
20260429T00Z_MSC_RDPS_WindU_IsbL-0450_RLatLon0.09_PT040H.grib2 2026-04-29 02:50 471K
20260429T00Z_MSC_RDPS_WindU_IsbL-0500_RLatLon0.09_PT040H.grib2 2026-04-29 02:50 472K
20260429T00Z_MSC_RDPS_WindU_IsbL-0550_RLatLon0.09_PT040H.grib2 2026-04-29 02:50 471K
20260429T00Z_MSC_RDPS_WindU_IsbL-0600_RLatLon0.09_PT040H.grib2 2026-04-29 02:50 462K
20260429T00Z_MSC_RDPS_WindU_IsbL-0650_RLatLon0.09_PT040H.grib2 2026-04-29 02:50 483K
20260429T00Z_MSC_RDPS_WindU_IsbL-0700_RLatLon0.09_PT040H.grib2 2026-04-29 02:50 505K
20260429T00Z_MSC_RDPS_WindU_IsbL-0750_RLatLon0.09_PT040H.grib2 2026-04-29 02:50 529K
20260429T00Z_MSC_RDPS_WindU_IsbL-0800_RLatLon0.09_PT040H.grib2 2026-04-29 02:50 568K
20260429T00Z_MSC_RDPS_WindU_IsbL-0850_RLatLon0.09_PT040H.grib2 2026-04-29 02:50 620K
20260429T00Z_MSC_RDPS_WindU_IsbL-0875_RLatLon0.09_PT040H.grib2 2026-04-29 02:50 638K
20260429T00Z_MSC_RDPS_WindU_IsbL-0900_RLatLon0.09_PT040H.grib2 2026-04-29 02:50 650K
20260429T00Z_MSC_RDPS_WindU_IsbL-0925_RLatLon0.09_PT040H.grib2 2026-04-29 02:50 657K
20260429T00Z_MSC_RDPS_WindU_IsbL-0950_RLatLon0.09_PT040H.grib2 2026-04-29 02:50 652K
20260429T00Z_MSC_RDPS_WindU_IsbL-0970_RLatLon0.09_PT040H.grib2 2026-04-29 02:50 652K
20260429T00Z_MSC_RDPS_WindU_IsbL-0985_RLatLon0.09_PT040H.grib2 2026-04-29 02:50 790K
20260429T00Z_MSC_RDPS_WindU_IsbL-1000_RLatLon0.09_PT040H.grib2 2026-04-29 02:50 788K
20260429T00Z_MSC_RDPS_WindU_IsbL-1015_RLatLon0.09_PT040H.grib2 2026-04-29 02:50 781K
20260429T00Z_MSC_RDPS_WindV_AGL-10m_RLatLon0.09_PT040H.grib2 2026-04-29 02:50 432K
20260429T00Z_MSC_RDPS_WindV_AGL-120m_RLatLon0.09_PT040H.grib2 2026-04-29 02:50 533K
20260429T00Z_MSC_RDPS_WindV_AGL-40m_RLatLon0.09_PT040H.grib2 2026-04-29 02:50 534K
20260429T00Z_MSC_RDPS_WindV_AGL-80m_RLatLon0.09_PT040H.grib2 2026-04-29 02:50 532K
20260429T00Z_MSC_RDPS_WindV_IsbL-0001_RLatLon0.09_PT040H.grib2 2026-04-29 02:50 247K
20260429T00Z_MSC_RDPS_WindV_IsbL-0005_RLatLon0.09_PT040H.grib2 2026-04-29 02:50 289K
20260429T00Z_MSC_RDPS_WindV_IsbL-0010_RLatLon0.09_PT040H.grib2 2026-04-29 02:50 304K
20260429T00Z_MSC_RDPS_WindV_IsbL-0020_RLatLon0.09_PT040H.grib2 2026-04-29 02:50 321K
20260429T00Z_MSC_RDPS_WindV_IsbL-0030_RLatLon0.09_PT040H.grib2 2026-04-29 02:50 321K
20260429T00Z_MSC_RDPS_WindV_IsbL-0050_RLatLon0.09_PT040H.grib2 2026-04-29 02:50 346K
20260429T00Z_MSC_RDPS_WindV_IsbL-0100_RLatLon0.09_PT040H.grib2 2026-04-29 02:50 429K
20260429T00Z_MSC_RDPS_WindV_IsbL-0150_RLatLon0.09_PT040H.grib2 2026-04-29 02:50 397K
20260429T00Z_MSC_RDPS_WindV_IsbL-0175_RLatLon0.09_PT040H.grib2 2026-04-29 02:50 420K
20260429T00Z_MSC_RDPS_WindV_IsbL-0200_RLatLon0.09_PT040H.grib2 2026-04-29 02:50 337K
20260429T00Z_MSC_RDPS_WindV_IsbL-0225_RLatLon0.09_PT040H.grib2 2026-04-29 02:50 341K
20260429T00Z_MSC_RDPS_WindV_IsbL-0250_RLatLon0.09_PT040H.grib2 2026-04-29 02:50 345K
20260429T00Z_MSC_RDPS_WindV_IsbL-0275_RLatLon0.09_PT040H.grib2 2026-04-29 02:50 360K
20260429T00Z_MSC_RDPS_WindV_IsbL-0300_RLatLon0.09_PT040H.grib2 2026-04-29 02:50 356K
20260429T00Z_MSC_RDPS_WindV_IsbL-0350_RLatLon0.09_PT040H.grib2 2026-04-29 02:50 364K
20260429T00Z_MSC_RDPS_WindV_IsbL-0400_RLatLon0.09_PT040H.grib2 2026-04-29 02:50 469K
20260429T00Z_MSC_RDPS_WindV_IsbL-0450_RLatLon0.09_PT040H.grib2 2026-04-29 02:50 467K
20260429T00Z_MSC_RDPS_WindV_IsbL-0500_RLatLon0.09_PT040H.grib2 2026-04-29 02:50 468K
20260429T00Z_MSC_RDPS_WindV_IsbL-0550_RLatLon0.09_PT040H.grib2 2026-04-29 02:50 469K
20260429T00Z_MSC_RDPS_WindV_IsbL-0600_RLatLon0.09_PT040H.grib2 2026-04-29 02:50 476K
20260429T00Z_MSC_RDPS_WindV_IsbL-0650_RLatLon0.09_PT040H.grib2 2026-04-29 02:50 479K
20260429T00Z_MSC_RDPS_WindV_IsbL-0700_RLatLon0.09_PT040H.grib2 2026-04-29 02:50 499K
20260429T00Z_MSC_RDPS_WindV_IsbL-0750_RLatLon0.09_PT040H.grib2 2026-04-29 02:50 523K
20260429T00Z_MSC_RDPS_WindV_IsbL-0800_RLatLon0.09_PT040H.grib2 2026-04-29 02:50 691K
20260429T00Z_MSC_RDPS_WindV_IsbL-0850_RLatLon0.09_PT040H.grib2 2026-04-29 02:50 751K
20260429T00Z_MSC_RDPS_WindV_IsbL-0875_RLatLon0.09_PT040H.grib2 2026-04-29 02:50 773K
20260429T00Z_MSC_RDPS_WindV_IsbL-0900_RLatLon0.09_PT040H.grib2 2026-04-29 02:50 649K
20260429T00Z_MSC_RDPS_WindV_IsbL-0925_RLatLon0.09_PT040H.grib2 2026-04-29 02:50 656K
20260429T00Z_MSC_RDPS_WindV_IsbL-0950_RLatLon0.09_PT040H.grib2 2026-04-29 02:50 790K
20260429T00Z_MSC_RDPS_WindV_IsbL-0970_RLatLon0.09_PT040H.grib2 2026-04-29 02:50 791K
20260429T00Z_MSC_RDPS_WindV_IsbL-0985_RLatLon0.09_PT040H.grib2 2026-04-29 02:50 835K
20260429T00Z_MSC_RDPS_WindV_IsbL-1000_RLatLon0.09_PT040H.grib2 2026-04-29 02:50 831K
20260429T00Z_MSC_RDPS_WindV_IsbL-1015_RLatLon0.09_PT040H.grib2 2026-04-29 02:50 825K